TimeCDT,TemperatureF,Dew PointF,Humidity,Sea Level PressureIn,VisibilityMPH,Wind Direction,Wind SpeedMPH,Gust SpeedMPH,PrecipitationIn,Events,Conditions,WindDirDegrees,DateUTC
12:52 AM,46.9,39.9,77,29.81,7.0,SW,11.5,-,0.00,,Overcast,230,2013-03-31 05:52:00
1:25 AM,46.4,41.0,81,29.79,5.0,WSW,11.5,-,N/A,,Haze,240,2013-03-31 06:25:00
1:52 AM,45.0,42.1,90,29.79,5.0,West,9.2,-,N/A,,Overcast,260,2013-03-31 06:52:00
2:52 AM,45.0,41.0,86,29.78,5.0,West,10.4,-,N/A,,Overcast,270,2013-03-31 07:52:00
3:52 AM,44.1,41.0,89,29.76,6.0,WNW,12.7,-,N/A,,Overcast,290,2013-03-31 08:52:00
4:34 AM,42.8,37.4,81,29.75,6.0,WNW,13.8,21.9,N/A,,Mostly Cloudy,290,2013-03-31 09:34:00
4:52 AM,41.0,37.0,86,29.75,6.0,WNW,9.2,-,N/A,,Mostly Cloudy,290,2013-03-31 09:52:00
5:34 AM,39.2,35.6,87,29.75,7.0,West,9.2,-,N/A,,Scattered Clouds,280,2013-03-31 10:34:00
5:52 AM,39.0,35.1,86,29.77,6.0,WNW,13.8,18.4,N/A,,Scattered Clouds,300,2013-03-31 10:52:00
6:10 AM,39.2,35.6,87,29.75,5.0,WNW,12.7,20.7,N/A,,Mostly Cloudy,300,2013-03-31 11:10:00
6:31 AM,39.2,35.6,87,29.75,4.0,WNW,11.5,-,N/A,,Overcast,300,2013-03-31 11:31:00
6:52 AM,39.0,36.0,89,29.77,3.0,West,9.2,-,N/A,,Overcast,280,2013-03-31 11:52:00
7:52 AM,39.0,36.0,89,29.76,3.0,West,13.8,-,N/A,,Overcast,270,2013-03-31 12:52:00
8:52 AM,39.9,36.0,86,29.75,4.0,West,11.5,-,N/A,,Mostly Cloudy,260,2013-03-31 13:52:00
9:15 AM,41.0,37.4,87,29.73,4.0,West,12.7,18.4,N/A,,Mostly Cloudy,280,2013-03-31 14:15:00
9:52 AM,42.1,36.0,79,29.75,5.0,West,13.8,20.7,N/A,,Haze,270,2013-03-31 14:52:00
10:39 AM,44.6,37.4,76,29.73,5.0,WSW,16.1,20.7,N/A,,Haze,240,2013-03-31 15:39:00
10:52 AM,46.0,37.0,71,29.73,6.0,WSW,9.2,-,N/A,,Haze,250,2013-03-31 15:52:00
11:52 AM,51.1,37.9,61,29.72,10.0,WSW,12.7,20.7,N/A,,Mostly Cloudy,250,2013-03-31 16:52:00
12:52 PM,51.1,35.1,54,29.70,10.0,West,15.0,25.3,N/A,,Mostly Cloudy,270,2013-03-31 17:52:00
1:52 PM,53.1,32.0,45,29.70,10.0,West,16.1,24.2,N/A,,Scattered Clouds,270,2013-03-31 18:52:00
2:52 PM,51.1,28.9,43,29.70,10.0,West,18.4,26.5,N/A,,Mostly Cloudy,280,2013-03-31 19:52:00
3:52 PM,48.9,32.0,52,29.71,10.0,WNW,19.6,29.9,N/A,,Mostly Cloudy,300,2013-03-31 20:52:00
4:52 PM,43.0,30.0,60,29.76,10.0,WNW,20.7,26.5,N/A,,Overcast,300,2013-03-31 21:52:00
5:52 PM,42.1,28.9,60,29.77,10.0,WNW,11.5,-,N/A,,Mostly Cloudy,290,2013-03-31 22:52:00
6:52 PM,41.0,26.1,55,29.78,10.0,WNW,16.1,26.5,N/A,,Scattered Clouds,300,2013-03-31 23:52:00
7:52 PM,37.9,30.0,73,29.82,6.0,NW,20.7,28.8,0.00,Rain-Snow,Light Rain,310,2013-04-01 00:52:00
8:07 PM,35.6,32.0,87,29.81,5.0,WNW,12.7,-,0.00,Rain-Snow,Light Rain,300,2013-04-01 01:07:00
8:15 PM,35.6,30.2,81,29.81,9.0,WNW,11.5,-,0.00,Snow,Light Snow,300,2013-04-01 01:15:00
8:52 PM,37.0,30.0,76,29.85,10.0,NW,12.7,24.2,0.00,,Mostly Cloudy,310,2013-04-01 01:52:00
9:52 PM,36.0,28.9,76,29.86,10.0,WNW,8.1,-,N/A,,Scattered Clouds,300,2013-04-01 02:52:00
10:52 PM,35.1,23.0,61,29.88,10.0,NW,11.5,-,N/A,,Partly Cloudy,310,2013-04-01 03:52:00
11:52 PM,34.0,18.0,52,29.89,10.0,NNW,10.4,-,N/A,,Partly Cloudy,340,2013-04-01 04:52:00